sat.trackr.live / text

‹ back to catalog

NETSAT-2

NORAD 46507 · 2020-068X

PAYLOAD ACTIVE UNKNOWN

§ Identity

Operator
Country
GER
Launch date
2020-09-28
Launch site
PLMSC
Launch vehicle
Mass (kg)
RCS (m²)

Purposes: tech_demo

External: N2YO · Heavens-Above · Gunter

§ Orbital elements

Epoch: 2026-09-14T12:16:13.518048Z

Period
92.94 min
Inclination
97.8610°
Eccentricity
0.0004762
Mean motion
15.49460456 rev/d
Perigee alt
415.1 km
Apogee alt
421.5 km
Semi-major
6,796.4 km
B*
3.1671e-4
RAAN
273.4049°
Arg perigee
55.2499°
Mean anomaly
304.9199°
Rev number
32,955

§ Raw data

NETSAT-21 46507U 20068X   26257.51126757  .00017334  00000+0  31671-3 0  99922 46507  97.8610 273.4049 0004762  55.2499 304.9199 15.49460456329550

JSON: /api/v1/satellites/46507 · /tle

For live sub-satellite position, see the globe view (requires WebGL).

§ Visibility from observer

Set your observer location to see the next 7 days of passes ≥ 10°. The values pass through the URL so the page stays shareable.

No JS? Fill the form by hand. The geolocation button needs JavaScript.

§ Radio — SatNOGS DB

ModeDescriptionDownlinkUplink
FSK AX.25 G3RUH Telemetry 435.600 MHz

1 transmitter · refreshed weekly from db.satnogs.org